DW0542 Weather Reports


time (UTC)temp
C
wind
direction
speed
KPH
gust
KPH
rain 1hr
cm
rain 24hr
cm
rain mn
cm
humidity
%
barometer
mb
20260504231508 17 171 0.0 14.5 0.00 0.00 0.00 48 1008.9
20260504230005 17 173 3.2 22.5 0.00 0.00 0.00 47 1008.8
20260504224502 17 178 0.0 22.5 0.00 0.00 0.00 47 1008.6
20260504223103 18 159 3.2 24.1 0.00 0.00 0.00 45 1008.5
20260504221605 18 185 8.0 24.1 0.00 0.00 0.00 45 1008.5
20260504220113 18 163 8.0 29.0 0.00 0.00 0.00 43 1008.4
20260504214521 19 166 8.0 29.0 0.00 0.00 0.00 42 1008.3
20260504213018 20 186 6.4 29.0 0.00 0.00 0.00 40 1008.3
20260504211514 19 180 1.6 17.7 0.00 0.00 0.00 40 1008.2
20260504210011 20 180 9.7 35.4 0.00 0.00 0.00 39 1008.2
20260504204619 20 180 9.7 25.7 0.00 0.00 0.00 37 1008.1
20260504203008 19 236 4.8 22.5 0.00 0.00 0.00 37 1008.2
20260504201536 19 198 16.1 27.4 0.00 0.00 0.00 36 1008.4
20260504200042 19 213 12.9 30.6 0.00 0.00 0.00 37 1008.3
20260504194537 19 199 14.5 30.6 0.00 0.00 0.00 35 1008.5
20260504193032 19 185 9.7 37.0 0.00 0.00 0.00 35 1008.5
20260504191530 19 220 14.5 33.8 0.00 0.00 0.00 35 1008.6
20260504190033 18 215 14.5 24.1 0.00 0.00 0.00 35 1008.7
20260504184532 18 225 11.3 25.7 0.00 0.00 0.00 36 1008.9
20260504183023 18 171 11.3 29.0 0.00 0.00 0.00 35 1009.0
20260504181523 18 194 9.7 32.2 0.00 0.00 0.00 34 1009.1
20260504180019 18 214 17.7 37.0 0.00 0.00 0.00 33 1009.4
20260504174515 18 249 9.7 41.8 0.00 0.00 0.00 35 1009.2
20260504173013 18 201 19.3 40.2 0.00 0.00 0.00 34 1009.6
20260504171511 17 169 17.7 43.5 0.00 0.00 0.00 34 1009.4
20260504160200 16 208 17.7 33.8 0.00 0.00 0.00 39 1010.4
20260504044532 3 274 0.0 0.0 0.00 0.00 0.00 72 1011.9
20260504043002 3 274 0.0 0.0 0.00 0.00 0.00 72 1011.8
20260504041559 3 274 0.0 0.0 0.00 0.00 0.00 71 1011.7
20260504040056 3 274 0.0 0.0 0.00 0.00 0.00 73 1011.6
20260504034554 2 274 0.0 0.0 0.00 0.00 0.00 74 1011.5
20260504033053 3 274 0.0 0.0 0.00 0.00 0.00 75 1011.4
20260504031552 3 274 0.0 0.0 0.00 0.00 0.00 74 1011.3
20260504030047 3 274 0.0 0.0 0.00 0.00 0.00 71 1011.2
20260504024548 3 274 0.0 0.0 0.00 0.00 0.00 68 1011.1
20260504023042 3 274 0.0 0.0 0.00 0.00 0.00 67 1011.0
20260504021539 3 274 0.0 0.0 0.00 0.00 0.00 66 1011.0
20260504020104 3 274 0.0 0.0 0.00 0.00 0.00 67 1010.9
20260504014518 4 274 0.0 0.0 0.00 0.00 0.00 68 1010.8
20260504013028 5 274 0.0 0.0 0.00 0.00 0.00 63 1010.6
20260504011548 5 274 0.0 0.0 0.00 0.00 0.00 61 1010.4
20260504010143 6 274 0.0 0.0 0.00 0.00 0.00 59 1010.2
20260504004600 8 274 0.0 0.0 0.00 0.00 0.00 54 1010.0
20260504003034 9 274 0.0 0.0 0.00 0.00 0.00 47 1009.9
20260504001529 10 274 0.0 0.0 0.00 0.00 0.00 49 1009.6
20260504000027 10 278 3.2 12.9 0.00 0.00 0.00 47 1009.4
20260503234526 10 304 8.0 19.3 0.00 0.00 0.00 48 1009.4
20260503233023 10 276 11.3 22.5 0.00 0.00 0.00 47 1009.3